| time (UTC) | temp C | wind direction | speed KPH | gust KPH | rain 1hr cm | rain 24hr cm | rain mn cm | humidity % | barometer mb |
| 20260505041504 | 7 | 356 | 1.6 | 11.3 | 0.00 | 0.00 | 0.00 | 95 | 1014.5 |
| 20260505041004 | 7 | 353 | 3.2 | 8.0 | 0.00 | 0.00 | 0.00 | 95 | 1014.3 |
| 20260505040503 | 8 | 4 | 3.2 | 8.0 | 0.00 | 0.00 | 0.00 | 95 | 1015.2 |
| 20260505040005 | 8 | 357 | 1.6 | 8.0 | 0.00 | 0.00 | 0.00 | 95 | 1015.2 |
| 20260505035505 | 8 | 26 | 0.0 | 8.0 | 0.00 | 0.00 | 0.00 | 95 | 1015.2 |
| 20260505035005 | 8 | 19 | 1.6 | 8.0 | 0.00 | 0.00 | 0.00 | 95 | 1014.9 |
| 20260505034504 | 8 | 28 | 1.6 | 8.0 | 0.00 | 0.00 | 0.00 | 95 | 1015.2 |
| 20260505033503 | 8 | 29 | 0.0 | 0.0 | 0.00 | 0.00 | 0.00 | 95 | 1014.2 |
| 20260505033004 | 7 | 29 | 0.0 | 0.0 | 0.00 | 0.00 | 0.00 | 95 | 1014.2 |
| 20260505032505 | 8 | 29 | 0.0 | 0.0 | 0.00 | 0.00 | 0.00 | 95 | 1014.9 |
| 20260505032004 | 8 | 29 | 0.0 | 0.0 | 0.00 | 0.00 | 0.00 | 94 | 1014.2 |
| 20260505031504 | 8 | 29 | 0.0 | 0.0 | 0.00 | 0.00 | 0.00 | 94 | 1013.9 |
| 20260505031004 | 8 | 29 | 0.0 | 0.0 | 0.00 | 0.00 | 0.00 | 94 | 1013.9 |
| 20260505030503 | 8 | 81 | 0.0 | 0.0 | 0.00 | 0.00 | 0.00 | 94 | 1014.2 |
| 20260505030004 | 8 | 86 | 0.0 | 0.0 | 0.00 | 0.00 | 0.00 | 94 | 1014.9 |
| 20260505025504 | 8 | 86 | 0.0 | 0.0 | 0.00 | 0.00 | 0.00 | 94 | 1013.9 |
| 20260505024504 | 8 | 86 | 0.0 | 0.0 | 0.00 | 0.00 | 0.00 | 93 | 1014.9 |
| 20260505022504 | 9 | 35 | 3.2 | 8.0 | 0.00 | 0.00 | 0.00 | 93 | 1013.9 |
| 20260505021504 | 9 | 1 | 1.6 | 3.2 | 0.00 | 0.00 | 0.00 | 93 | 1014.2 |
| 20260505021005 | 9 | 28 | 3.2 | 4.8 | 0.00 | 0.00 | 0.00 | 92 | 1013.9 |
| 20260505020504 | 10 | 306 | 4.8 | 14.5 | 0.00 | 0.00 | 0.00 | 92 | 1013.9 |
| 20260505020005 | 10 | 343 | 11.3 | 14.5 | 0.00 | 0.00 | 0.00 | 92 | 1014.9 |
| 20260505015504 | 10 | 355 | 4.8 | 11.3 | 0.00 | 0.00 | 0.00 | 92 | 1014.9 |
| 20260505015003 | 10 | 355 | 8.0 | 14.5 | 0.00 | 0.00 | 0.00 | 92 | 1015.2 |
| 20260505014505 | 10 | 22 | 9.7 | 14.5 | 0.00 | 0.00 | 0.00 | 91 | 1014.9 |
| 20260505013505 | 10 | 20 | 0.0 | 8.0 | 0.00 | 0.00 | 0.00 | 91 | 1015.2 |
| 20260505012504 | 10 | 129 | 0.0 | 4.8 | 0.00 | 0.00 | 0.00 | 91 | 1015.2 |
| 20260505012005 | 10 | 60 | 3.2 | 4.8 | 0.00 | 0.00 | 0.00 | 90 | 1014.2 |
| 20260505011504 | 11 | 11 | 4.8 | 8.0 | 0.00 | 0.00 | 0.00 | 90 | 1014.6 |
| 20260505011004 | 11 | 30 | 4.8 | 12.9 | 0.00 | 0.00 | 0.00 | 90 | 1014.6 |
| 20260505010504 | 11 | 55 | 9.7 | 12.9 | 0.00 | 0.00 | 0.00 | 89 | 1014.2 |
| 20260505010004 | 11 | 32 | 4.8 | 4.8 | 0.00 | 0.00 | 0.00 | 89 | 1014.6 |
| 20260505005004 | 11 | 24 | 4.8 | 11.3 | 0.00 | 0.00 | 0.00 | 89 | 1015.6 |
| 20260505004504 | 11 | 20 | 3.2 | 14.5 | 0.00 | 0.00 | 0.00 | 89 | 1015.6 |
| 20260505004004 | 11 | 52 | 3.2 | 14.5 | 0.00 | 0.00 | 0.00 | 89 | 1015.6 |
| 20260505003505 | 11 | 36 | 4.8 | 19.3 | 0.00 | 0.00 | 0.00 | 89 | 1015.6 |
| 20260505003004 | 11 | 62 | 12.9 | 19.3 | 0.00 | 0.00 | 0.00 | 89 | 1015.6 |
| 20260505002504 | 11 | 12 | 3.2 | 14.5 | 0.00 | 0.00 | 0.00 | 89 | 1015.6 |
| 20260505001504 | 11 | 39 | 8.0 | 11.3 | 0.00 | 0.00 | 0.00 | 89 | 1015.6 |
| 20260505001004 | 11 | 35 | 1.6 | 8.0 | 0.00 | 0.00 | 0.00 | 89 | 1014.6 |
| 20260505000504 | 11 | 31 | 4.8 | 8.0 | 0.00 | 0.00 | 0.00 | 89 | 1014.6 |
| 20260504235504 | 11 | 33 | 4.8 | 4.8 | 0.00 | 0.00 | 0.00 | 89 | 1014.9 |
| 20260504235003 | 11 | 63 | 1.6 | 4.8 | 0.00 | 0.00 | 0.00 | 89 | 1014.9 |
| 20260504234004 | 11 | 35 | 8.0 | 8.0 | 0.00 | 0.00 | 0.00 | 88 | 1014.9 |
| 20260504233503 | 11 | 35 | 4.8 | 11.3 | 0.00 | 0.00 | 0.00 | 88 | 1014.9 |
| 20260504233005 | 11 | 45 | 8.0 | 11.3 | 0.00 | 0.00 | 0.00 | 88 | 1015.9 |
| 20260504232504 | 11 | 11 | 1.6 | 11.3 | 0.00 | 0.00 | 0.00 | 88 | 1015.6 |
| 20260504232004 | 12 | 36 | 4.8 | 11.3 | 0.00 | 0.00 | 0.00 | 88 | 1015.6 |
| 20260504231505 | 12 | 65 | 4.8 | 14.5 | 0.00 | 0.00 | 0.00 | 87 | 1015.9 |
| 20260504231004 | 12 | 25 | 9.7 | 14.5 | 0.00 | 0.00 | 0.00 | 87 | 1015.6 |
| 20260504230504 | 12 | 46 | 9.7 | 14.5 | 0.00 | 0.00 | 0.00 | 87 | 1015.9 |
| 20260504225504 | 12 | 55 | 1.6 | 14.5 | 0.00 | 0.00 | 0.00 | 87 | 1015.6 |
| 20260504225003 | 12 | 44 | 8.0 | 14.5 | 0.00 | 0.00 | 0.00 | 86 | 1015.9 |
| 20260504223505 | 12 | 314 | 4.8 | 19.3 | 0.00 | 0.00 | 0.00 | 86 | 1015.6 |
| 20260504223003 | 12 | 36 | 3.2 | 19.3 | 0.00 | 0.00 | 0.00 | 86 | 1015.9 |
| 20260504222505 | 12 | 23 | 4.8 | 19.3 | 0.00 | 0.00 | 0.00 | 86 | 1014.9 |
| 20260504222004 | 12 | 29 | 12.9 | 19.3 | 0.00 | 0.00 | 0.00 | 86 | 1015.9 |
| 20260504220504 | 12 | 48 | 4.8 | 11.3 | 0.00 | 0.00 | 0.00 | 87 | 1014.9 |
| 20260504220004 | 12 | 8 | 3.2 | 14.5 | 0.00 | 0.00 | 0.00 | 87 | 1016.3 |
| 20260504215504 | 12 | 28 | 4.8 | 19.3 | 0.00 | 0.00 | 0.00 | 87 | 1015.6 |
| 20260504215003 | 12 | 21 | 9.7 | 19.3 | 0.00 | 0.00 | 0.00 | 87 | 1015.9 |
| 20260504214504 | 12 | 48 | 9.7 | 19.3 | 0.00 | 0.00 | 0.00 | 87 | 1015.6 |
| 20260504214004 | 12 | 59 | 8.0 | 19.3 | 0.00 | 0.00 | 0.00 | 87 | 1015.9 |
| 20260504213504 | 12 | 58 | 11.3 | 19.3 | 0.00 | 0.00 | 0.00 | 87 | 1015.9 |
| 20260504213005 | 12 | 36 | 3.2 | 19.3 | 0.00 | 0.00 | 0.00 | 87 | 1016.3 |
| 20260504212504 | 12 | 64 | 12.9 | 19.3 | 0.00 | 0.00 | 0.00 | 87 | 1015.9 |
| 20260504212004 | 12 | 27 | 4.8 | 8.0 | 0.00 | 0.00 | 0.00 | 87 | 1015.2 |
| 20260504211004 | 12 | 32 | 8.0 | 14.5 | 0.00 | 0.00 | 0.00 | 87 | 1015.9 |
| 20260504210504 | 12 | 35 | 3.2 | 11.3 | 0.00 | 0.00 | 0.00 | 87 | 1015.9 |
| 20260504205505 | 12 | 23 | 4.8 | 11.3 | 0.00 | 0.00 | 0.00 | 87 | 1015.2 |
| 20260504205005 | 12 | 103 | 3.2 | 11.3 | 0.00 | 0.00 | 0.00 | 87 | 1015.2 |
| 20260504204504 | 12 | 37 | 3.2 | 4.8 | 0.00 | 0.00 | 0.00 | 87 | 1015.2 |
| 20260504204005 | 12 | 36 | 1.6 | 11.3 | 0.00 | 0.00 | 0.00 | 87 | 1015.8 |
| 20260504203505 | 12 | 24 | 6.4 | 11.3 | 0.00 | 0.00 | 0.00 | 87 | 1015.9 |
| 20260504203004 | 12 | 25 | 8.0 | 11.3 | 0.00 | 0.00 | 0.00 | 87 | 1015.9 |
| 20260504202504 | 12 | 20 | 4.8 | 14.5 | 0.00 | 0.00 | 0.00 | 87 | 1015.7 |
| 20260504202004 | 12 | 25 | 3.2 | 14.5 | 0.00 | 0.00 | 0.00 | 87 | 1015.8 |
| 20260504201504 | 12 | 25 | 3.2 | 11.3 | 0.00 | 0.00 | 0.00 | 87 | 1015.5 |
| 20260504201004 | 12 | 25 | 3.2 | 8.0 | 0.00 | 0.00 | 0.00 | 87 | 1015.6 |
| 20260504200505 | 12 | 20 | 1.6 | 8.0 | 0.00 | 0.00 | 0.00 | 87 | 1015.9 |
| 20260504200004 | 12 | 30 | 4.8 | 8.0 | 0.00 | 0.00 | 0.00 | 87 | 1015.9 |
| 20260504195505 | 12 | 26 | 3.2 | 8.0 | 0.00 | 0.00 | 0.00 | 87 | 1015.5 |
| 20260504195003 | 12 | 346 | 1.6 | 3.2 | 0.00 | 0.00 | 0.00 | 87 | 1015.0 |
| 20260504194504 | 12 | 355 | 0.0 | 3.2 | 0.00 | 0.00 | 0.00 | 87 | 1015.1 |
| 20260504193504 | 12 | 32 | 8.0 | 14.5 | 0.00 | 0.00 | 0.00 | 87 | 1015.6 |
| 20260504193005 | 12 | 27 | 6.4 | 14.5 | 0.00 | 0.00 | 0.00 | 87 | 1015.5 |
| 20260504192504 | 12 | 25 | 3.2 | 14.5 | 0.00 | 0.00 | 0.00 | 86 | 1015.2 |
| 20260504192004 | 13 | 36 | 6.4 | 11.3 | 0.00 | 0.00 | 0.00 | 86 | 1015.2 |
| 20260504191504 | 13 | 43 | 6.4 | 11.3 | 0.00 | 0.00 | 0.00 | 85 | 1014.6 |
| 20260504191003 | 13 | 27 | 8.0 | 16.1 | 0.00 | 0.00 | 0.00 | 85 | 1015.2 |
| 20260504190504 | 13 | 23 | 9.7 | 16.1 | 0.00 | 0.00 | 0.00 | 85 | 1014.9 |
| 20260504190005 | 13 | 42 | 8.0 | 8.0 | 0.00 | 0.00 | 0.00 | 85 | 1014.9 |
| 20260504185503 | 13 | 28 | 4.8 | 11.3 | 0.00 | 0.00 | 0.00 | 84 | 1014.9 |
| 20260504185004 | 13 | 95 | 8.0 | 14.5 | 0.00 | 0.00 | 0.00 | 84 | 1015.2 |
| 20260504184004 | 13 | 35 | 4.8 | 14.5 | 0.00 | 0.00 | 0.00 | 84 | 1015.2 |
| 20260504183504 | 13 | 117 | 8.0 | 14.5 | 0.00 | 0.00 | 0.00 | 84 | 1015.2 |
| 20260504183004 | 13 | 64 | 4.8 | 19.3 | 0.00 | 0.00 | 0.00 | 84 | 1015.2 |
| 20260504182504 | 13 | 70 | 6.4 | 19.3 | 0.00 | 0.00 | 0.00 | 84 | 1014.9 |
| 20260504182004 | 13 | 30 | 3.2 | 4.8 | 0.00 | 0.00 | 0.00 | 84 | 1014.6 |
| 20260504181503 | 13 | 21 | 4.8 | 8.0 | 0.00 | 0.00 | 0.00 | 84 | 1014.6 |
| 20260504181004 | 13 | 34 | 8.0 | 19.3 | 0.00 | 0.00 | 0.00 | 84 | 1014.6 |
| 20260504180504 | 13 | 4 | 11.3 | 19.3 | 0.00 | 0.00 | 0.00 | 84 | 1014.9 |
| 20260504180005 | 13 | 58 | 1.6 | 12.9 | 0.00 | 0.00 | 0.00 | 84 | 1014.6 |
| 20260504175003 | 13 | 84 | 9.7 | 19.3 | 0.00 | 0.00 | 0.00 | 84 | 1014.2 |
| 20260504174004 | 13 | 22 | 16.1 | 25.7 | 0.00 | 0.00 | 0.00 | 84 | 1015.2 |
| 20260504173505 | 13 | 24 | 4.8 | 14.5 | 0.00 | 0.00 | 0.00 | 85 | 1015.2 |
| 20260504173005 | 13 | 58 | 11.3 | 19.3 | 0.00 | 0.00 | 0.00 | 85 | 1014.9 |
| 20260504172504 | 13 | 46 | 16.1 | 19.3 | 0.00 | 0.00 | 0.00 | 84 | 1014.9 |
| 20260504172004 | 13 | 44 | 11.3 | 22.5 | 0.00 | 0.00 | 0.00 | 84 | 1014.2 |
| 20260504171004 | 13 | 63 | 12.9 | 25.7 | 0.00 | 0.00 | 0.00 | 83 | 1014.9 |
| 20260504170503 | 13 | 73 | 8.0 | 11.3 | 0.00 | 0.00 | 0.00 | 83 | 1014.9 |
| 20260504151004 | 15 | 36 | 4.8 | 22.5 | 0.00 | 0.00 | 0.00 | 79 | 1014.6 |
| 20260504150505 | 15 | 67 | 9.7 | 33.8 | 0.00 | 0.00 | 0.00 | 78 | 1014.9 |
| 20260504141003 | 16 | 69 | 4.8 | 14.5 | 0.00 | 0.00 | 0.00 | 73 | 1014.6 |
| 20260504140505 | 16 | 36 | 4.8 | 8.0 | 0.00 | 0.00 | 0.00 | 73 | 1014.2 |
| 20260504130505 | 16 | 68 | 8.0 | 14.5 | 0.00 | 0.00 | 0.00 | 73 | 1014.6 |
| 20260504110504 | 13 | 29 | 14.5 | 19.3 | 0.00 | 0.00 | 0.00 | 88 | 1015.6 |
| 20260504100504 | 14 | 41 | 1.6 | 8.0 | 0.00 | 0.00 | 0.00 | 86 | 1015.2 |
| 20260504082003 | 12 | 345 | 0.0 | 0.0 | 0.00 | 0.00 | 0.00 | 91 | 1014.2 |
| 20260504081504 | 12 | 328 | 0.0 | 0.0 | 0.00 | 0.00 | 0.00 | 92 | 1013.9 |
| 20260504081005 | 12 | 328 | 0.0 | 0.0 | 0.00 | 0.00 | 0.00 | 92 | 1014.2 |
| 20260504080503 | 12 | 328 | 0.0 | 0.0 | 0.00 | 0.00 | 0.00 | 92 | 1015.2 |
| 20260504050505 | 10 | 328 | 0.0 | 0.0 | 0.00 | 0.00 | 0.00 | 97 | 1013.4 |
| 20260504050004 | 10 | 328 | 0.0 | 0.0 | 0.00 | 0.00 | 0.00 | 96 | 1013.5 |